FREGAT DEB, 45820

Orbit data source: Space-Track

FREGAT DEB, 45820 is space debris in LEO originally from a launch on Mon, 18 Jul 2011 UTC launched from the Tyuratam Missile And Space Complex (TTMTR). Debris objects in space refer to the collection of defunct objects orbiting the Earth. Examples of debris include non-operational satellites, rocket bodies, and fragments generated from explosions, collisions, or faulty payload assembly.

Loading next visibility...
FREGAT DEB details
Identifier
45820, 2011-037BE
Orbit
LEO
Last TLE update19 hours ago
Origin
Flag of CISVVKO VKS (CIS)
ManufacturerLavochkin
MissionSpacecraft
Bus & MotorUnknown
MassUnknown
Launch date (UTC)
2011-07-18 (13 years ago)
Launch vehicleUnknown
Launch site
Tyuratam Missile And Space Complex (TTMTR)
Object type
Payload
Rocket body
Debris
Shape & HBRUnknown
Radar Cross SectionSmall (<0.1 m²)

Expand to show TLE details & history

TLE from 19 hours ago
0 FREGAT DEB
1 45820U 11037BE  24339.37477911  .00012095  00000-0  78840-2 0  9997
2 45820  51.5329 116.7785 1560932 328.6175  22.9989 11.61593078187948
Epoch: 2024-12-04T08:59Z
Definitive object data (Epoch: 2024-12-04T08:59:40.915Z)
Latitude0.00005°
Longitude-91.81278°
Altitude713.556 km
Speed8.003 km/s
True Right ascension07h 47m 06s
True Declination0° 00' 00"
Sunlit
Object was in full shadow at TLE epoch
Visualization TLE readout
Latitude51.35594°
Longitude4.42623°
Altitude2,453.191 km
Speed6.479 km/s
Apparent Right ascension14h 07m 33s
Apparent Declination15° 03' 35"
Sunlit
Object is in daylight
Visualization observer readout
Local Sidereal Time02:02:27
Azimuth358.5° N
Elevation-35.011°
Doppler factor1
Orbital elements
Apogee altitude3,143.592 km
Perigee altitude572.386 km
Semi-major axis8,236.126 km
Eccentricity0.1560932
Inclination51.5329°
RAAN116.7785°
Arg. of periapsis328.6175°
True anomaly31.46932°
Mean anomaly22.9989°
Eccentric anomaly27.06871°
Mean motion2.90375 °/min
BSTAR0.007884
Orbital period123.98 mins
Loading maneuver chart data...
Loading historical data...
Loading historical data...
Loading historical data...
Loading historical data...
Loading historical data...
Loading historical data...
Loading historical data...

FREGAT DEB Visibility forecast

Observer location: undefined°, undefined

Span
Click to sort rows by Start time (UTC) header in descending order
Start Az.
Max El. time (UTC)
Max El. Az.
Max El.
End time (UTC)
End Az.
7 mins2024-12-05 09:55:07.138Z134.724° SE2024-12-05 09:58:07.138Z107.184° ESE14.883°2024-12-05 10:02:07.138Z79.562° E
17 mins2024-12-05 12:00:07.138Z221.87° SW2024-12-05 12:05:07.138Z165.026° S44.387°2024-12-05 12:17:07.138Z54.251° ENE
21 mins2024-12-05 14:10:07.138Z278.653° WNW2024-12-05 14:17:07.138Z347.638° N38.602°2024-12-05 14:31:07.138Z62.149° ENE
27 mins2024-12-05 16:21:07.138Z302.968° NW2024-12-05 16:31:07.138Z14.41° NNE39.569°2024-12-05 16:48:07.138Z91.42° ESE
32 mins2024-12-05 18:31:07.138Z306.193° NW2024-12-05 18:45:07.138Z106.064° ESE44.995°2024-12-05 19:03:07.138Z131.231° SE
29 mins2024-12-05 20:43:07.138Z297.005° NW2024-12-05 20:56:07.138Z241.109° WSW33.801°2024-12-05 21:12:07.138Z176.848° S
|